#timestamp,LO_Frequency,Hit 
1505440815.4,286046996.1,N
1505440835.2,286046995.6,N
1505440855.0,286046994.0,N
1505440855.9,286046994.0,N
1505440875.8,286046991.3,N
1505440895.6,286046989.2,N
1505440915.4,286046994.0,N
1505440935.3,286046997.1,N
1505440955.1,286046996.7,N
1505440956.0,286046996.7,N
1505440975.8,286046991.9,N
1505440995.7,286046989.1,N
1505441015.5,286046985.3,N
1505441035.3,286046985.4,N
1505441055.1,286046983.9,N
1505441075.9,286046980.7,N
1505441095.7,286046987.5,N
1505441115.5,286046986.1,N
1505441135.4,286046985.9,N
1505441155.2,286046987.7,N
1505441175.0,286046988.6,N
1505441175.9,286046988.6,N
1505441195.8,286046992.0,N
1505441215.6,286046988.7,N
1505441235.4,286046993.1,N
1505441255.3,286046995.6,N
1505441275.1,286046995.9,N
1505441276.0,286046995.9,N
1505441295.8,286046995.2,N
1505441315.7,286046996.3,N
1505441335.5,286046993.5,N
1505441355.3,286046992.8,N
1505441375.2,286046992.7,N
1505441395.9,286046988.6,N
1505441415.7,286046992.5,N
1505441435.5,286046987.7,N
1505441455.4,286046989.8,N
1505441475.2,286046991.3,N
1505441495.0,286046991.2,N
1505441495.9,286046991.2,N
1505441515.8,286047000.6,N
1505441535.6,286047010.3,N
1505441555.4,286047009.9,N
1505441575.3,286047015.0,N
1505441595.1,286047014.2,N
1505441596.0,286047014.2,N
1505441615.8,286047009.6,N
1505441635.7,286047007.4,N
1505441655.5,286047004.7,N
1505441675.3,286047007.1,N
1505441695.2,286047004.8,N
1505441715.9,286047004.3,N
1505441735.7,286046999.9,N
1505441755.6,286046997.7,N
1505441775.4,286046998.5,N
1505441795.2,286047000.2,N
1505441815.0,286046998.8,N
1505441815.9,286046998.8,N
1505441835.8,286047013.2,N
1505441855.6,286047020.8,N
1505441875.4,286047018.6,N
1505441895.3,286047009.8,N
1505441915.1,286047009.1,N
1505441935.8,286047009.2,N
1505441955.9,286047005.8,N
1505441975.7,286047004.4,N
1505441995.9,286047004.4,N
1505442015.7,286047002.0,N
1505442035.6,286047005.3,N
1505442055.4,286047000.4,N
1505442075.2,286047002.3,N
1505442095.1,286047008.4,N
1505442096.0,286047008.4,N
1505442115.8,286047009.3,N
1505442135.6,286047008.2,N
1505442155.4,286047010.4,N
1505442175.3,286047011.0,N
1505442195.1,286047007.9,N
1505442215.8,286047010.8,N
1505442235.2,286047001.8,N
1505442255.1,286047004.9,N
1505442256.0,286047004.9,N
1505442275.8,286047011.8,N
1505442295.6,286047006.6,N
1505442315.5,286047010.8,N
1505442335.3,286047005.6,N
1505442355.1,286047008.9,N
1505442375.8,286047008.1,N
1505442395.7,286047005.8,N
1505442415.5,286047000.8,N
1505442435.3,286047000.6,N
1505442455.2,286047000.9,N
1505442475.9,286046999.5,N
1505442495.7,286046999.2,N
1505442515.6,286046996.1,N
1505442535.4,286046995.2,N
1505442555.2,286047001.2,N
1505442575.1,286046999.1,N
1505442576.0,286046999.1,N
1505442595.8,286046994.5,N
1505442615.6,286046992.5,N
1505442635.5,286046990.4,N
1505442655.1,286046994.1,N
1505442656.0,286046994.1,N
1505442675.8,286046996.1,N
1505442695.6,286046999.0,N
1505442715.5,286047003.1,N
1505442735.3,286047006.6,N
1505442755.1,286046999.7,N
1505442775.8,286047000.0,N
1505442795.7,286046998.1,N
1505442815.5,286047003.1,N
1505442835.3,286046999.9,N
1505442855.2,286047002.3,N
1505442875.0,286047001.0,N
1505442875.9,286047001.0,N
1505442895.7,286047000.6,N
1505442915.6,286047005.4,N
1505442935.4,286047009.2,N
1505442955.3,286047006.2,N
1505442975.2,286047005.4,N
1505442995.0,286047000.2,N
1505442995.9,286047000.2,N
1505443015.7,286046999.2,N
1505443035.6,286046997.7,N
1505443055.4,286046994.7,N
1505443075.2,286046997.5,N
1505443095.1,286047001.7,N
1505443096.0,286047001.7,N
1505443115.8,286047014.0,P
1505443135.6,286047013.0,N
1505443155.5,286047013.2,N
1505443175.3,286047012.6,N
1505443195.2,286047016.6,P
1505443215.9,286047003.5,N
1505443235.7,286047003.2,N
1505443255.5,286047005.5,N
1505443275.4,286047004.8,N
1505443295.2,286047006.0,N
1505443315.0,286047005.9,N
1505443315.9,286047005.9,N
1505443335.8,286047009.1,N
1505443355.6,286047005.9,N
1505443375.4,286046999.6,N
1505443395.3,286046994.7,N
1505443415.1,286046991.9,N
1505443416.0,286046991.9,N
1505443435.8,286046996.6,N
1505443455.7,286046995.7,N
1505443475.5,286047000.6,N
1505443495.4,286047002.5,N
1505443515.2,286047004.5,N
1505443535.0,286047009.3,N
1505443535.9,286047009.3,N
1505443555.8,286047013.6,N
1505443575.6,286047004.9,N
1505443595.4,286047008.9,N
1505443615.3,286047001.6,N
1505443635.1,286046995.5,N
1505443636.0,286046995.5,N
1505443655.8,286046995.5,N
1505443675.7,286047007.5,N
1505443695.5,286047009.0,N
1505443715.3,286047001.3,N
1505443735.1,286046999.7,N
1505443755.9,286047001.6,N
1505443775.7,286046995.0,N
1505443795.5,286046993.1,N
1505443815.4,286046990.3,N
1505443835.2,286046996.7,N
1505443855.0,286046996.4,N
1505443855.9,286046996.4,N
1505443875.8,286046993.6,N
1505443895.6,286046995.6,N
1505443915.4,286046992.9,N
1505443935.3,286046990.4,N
1505443955.1,286046991.1,N
1505443956.0,286046991.1,N
1505443975.8,286046990.8,N
1505443995.7,286046991.3,N
1505444015.5,286046991.4,N
1505444035.3,286047000.7,N
1505444055.2,286047006.0,N
1505444075.9,286047007.3,N
1505444095.7,286047008.3,N
1505444115.5,286047007.6,N
1505444135.4,286046998.8,N
1505444155.2,286046995.4,N
1505444175.0,286046993.9,N
1505444175.9,286046993.9,N
1505444195.8,286046999.0,N
1505444215.6,286046993.5,N
1505444235.4,286046996.2,N
1505444255.3,286046994.4,N
1505444275.1,286046989.1,N
1505444295.8,286046992.0,N
1505444315.7,286046999.5,N
1505444335.5,286046995.2,N
1505444355.3,286046999.3,N
1505444375.2,286046998.2,N
1505444395.9,286046996.0,N
